When you browse on this site, cookies collect data to enhance your experience and personalize the content and advertising you see.
Visit our Privacy Policy to learn more. By continuing to use the site, you agree to this use of cookies and data.
  • In Romania
  • List of Countries
  • For 7 days
  • Water Temperature
  • Satellite Maps
  • Weather Map
  • Weather Widgets
  • user-avatar
    Login

    Hourly Weather Kerema

    Today, 25 May, Saturday

    Time Temperature Precipitation Wind Pressure Humidity
    00:00 +27°C° 0.1 mm 1 mps 756 mmHg 94%
    01:00 +26°C° 0.1 mm 1 mps 756 mmHg 94%
    02:00 +26°C° 0.2 mm 1 mps 756 mmHg 94%
    03:00 +26°C° 0.2 mm 1 mps 756 mmHg 93%
    04:00 +26°C° 0 mm 1 mps 756 mmHg 92%
    05:00 +26°C° 0.2 mm 1 mps 756 mmHg 91%
    06:00 +26°C° 0.2 mm 1 mps 756 mmHg 91%
    07:00 +26°C° 0.2 mm 1 mps 756 mmHg 90%
    08:00 +29°C° 0 mm 1 mps 756 mmHg 80%
    09:00 +31°C° 0 mm 1 mps 756 mmHg 69%
    10:00 +33°C° 0 mm 1 mps 756 mmHg 61%
    11:00 +34°C° 0.1 mm 1 mps 756 mmHg 60%
    12:00 +35°C° 0.1 mm 2 mps 755 mmHg 59%
    13:00 +35°C° 0.1 mm 3 mps 755 mmHg 59%
    14:00 +35°C° 0.5 mm 3 mps 755 mmHg 63%
    15:00 +34°C° 0.5 mm 3 mps 754 mmHg 67%
    16:00 +33°C° 0.5 mm 3 mps 754 mmHg 71%
    17:00 +31°C° 0.9 mm 3 mps 755 mmHg 78%
    18:00 +29°C° 0.9 mm 3 mps 755 mmHg 85%
    19:00 +28°C° 0.9 mm 3 mps 755 mmHg 91%
    20:00 +28°C° 1.5 mm 3 mps 756 mmHg 93%
    21:00 +27°C° 1.5 mm 3 mps 756 mmHg 94%
    22:00 +27°C° 1.5 mm 3 mps 757 mmHg 96%
    23:00 +27°C° 1.6 mm 3 mps 756 mmHg 95%

    Tomorrow, 26 May, Sunday

    Time Temperature Precipitation Wind Pressure Humidity
    00:00 +27°C° 1.6 mm 2 mps 756 mmHg 95%
    01:00 +27°C° 1.6 mm 2 mps 756 mmHg 95%
    02:00 +27°C° 1.1 mm 2 mps 756 mmHg 95%
    03:00 +27°C° 1.1 mm 2 mps 756 mmHg 94%
    04:00 +26°C° 1.1 mm 1 mps 756 mmHg 94%
    05:00 +26°C° 0.2 mm 1 mps 756 mmHg 93%
    06:00 +26°C° 0.2 mm 1 mps 756 mmHg 93%
    07:00 +26°C° 0.2 mm 1 mps 756 mmHg 92%
    08:00 +29°C° 0 mm 1 mps 756 mmHg 82%
    09:00 +31°C° 0 mm 1 mps 757 mmHg 71%
    10:00 +33°C° 0 mm 1 mps 757 mmHg 60%
    11:00 +34°C° 0 mm 1 mps 756 mmHg 59%
    12:00 +35°C° 0 mm 2 mps 756 mmHg 57%
    13:00 +35°C° 0 mm 3 mps 755 mmHg 56%
    14:00 +34°C° 0.2 mm 3 mps 755 mmHg 62%
    15:00 +33°C° 0.2 mm 3 mps 754 mmHg 68%
    16:00 +31°C° 0.2 mm 3 mps 754 mmHg 74%
    17:00 +30°C° 0.3 mm 3 mps 754 mmHg 81%
    18:00 +29°C° 0.3 mm 2 mps 755 mmHg 87%
    19:00 +28°C° 0.3 mm 2 mps 755 mmHg 93%
    20:00 +27°C° 0.9 mm 2 mps 756 mmHg 94%
    21:00 +27°C° 0.9 mm 2 mps 756 mmHg 95%
    22:00 +27°C° 0.9 mm 2 mps 756 mmHg 95%
    23:00 +27°C° 0.8 mm 2 mps 756 mmHg 95%

    Day after tomorrow, 27 May, Monday

    Time Temperature Precipitation Wind Pressure Humidity
    00:00 +27°C° 0.8 mm 1 mps 756 mmHg 94%
    01:00 +27°C° 0.8 mm 1 mps 756 mmHg 94%
    02:00 +26°C° 0.1 mm 1 mps 756 mmHg 93%
    03:00 +26°C° 0.1 mm 1 mps 756 mmHg 93%
    04:00 +26°C° 0.1 mm 1 mps 755 mmHg 92%
    05:00 +26°C° 0 mm 1 mps 756 mmHg 91%
    06:00 +26°C° 0 mm 1 mps 756 mmHg 90%
    07:00 +26°C° 0 mm 2 mps 756 mmHg 89%
    08:00 +28°C° 0 mm 2 mps 756 mmHg 80%
    09:00 +30°C° 0 mm 1 mps 756 mmHg 71%
    10:00 +33°C° 0 mm 1 mps 756 mmHg 62%
    11:00 +34°C° 0 mm 2 mps 756 mmHg 61%
    12:00 +35°C° 0 mm 2 mps 755 mmHg 60%
    13:00 +35°C° 0 mm 2 mps 755 mmHg 59%
    14:00 +34°C° 0.2 mm 3 mps 754 mmHg 64%
    15:00 +33°C° 0.2 mm 3 mps 754 mmHg 69%
    16:00 +33°C° 0.2 mm 3 mps 753 mmHg 74%
    17:00 +30°C° 0.8 mm 3 mps 754 mmHg 80%
    18:00 +29°C° 0.8 mm 3 mps 755 mmHg 87%
    19:00 +28°C° 0.8 mm 3 mps 755 mmHg 93%
    20:00 +27°C° 1.5 mm 3 mps 756 mmHg 94%
    21:00 +27°C° 1.5 mm 3 mps 756 mmHg 94%
    22:00 +27°C° 1.5 mm 3 mps 757 mmHg 95%
    23:00 +27°C° 2.1 mm 3 mps 756 mmHg 95%

    28 May, Tuesday

    Time Temperature Precipitation Wind Pressure Humidity
    00:00 +27°C° 2.1 mm 3 mps 756 mmHg 95%
    01:00 +27°C° 2.1 mm 2 mps 756 mmHg 95%
    02:00 +27°C° 0.5 mm 2 mps 755 mmHg 95%
    03:00 +26°C° 0.5 mm 2 mps 755 mmHg 95%
    04:00 +26°C° 0.5 mm 2 mps 755 mmHg 95%
    05:00 +26°C° 1 mm 1 mps 755 mmHg 95%
    06:00 +26°C° 1 mm 1 mps 756 mmHg 94%
    07:00 +26°C° 1 mm 1 mps 756 mmHg 93%
    08:00 +28°C° 0.1 mm 1 mps 757 mmHg 87%
    09:00 +29°C° 0.1 mm 1 mps 757 mmHg 80%
    10:00 +31°C° 0.1 mm 1 mps 757 mmHg 74%
    11:00 +31°C° 0.1 mm 2 mps 756 mmHg 72%
    12:00 +32°C° 0.1 mm 2 mps 756 mmHg 70%
    13:00 +34°C° 0.1 mm 3 mps 755 mmHg 68%
    14:00 +33°C° 0.4 mm 3 mps 755 mmHg 73%
    15:00 +31°C° 0.4 mm 3 mps 754 mmHg 77%
    16:00 +30°C° 0.4 mm 3 mps 754 mmHg 82%
    17:00 +29°C° 1.2 mm 2 mps 755 mmHg 87%
    18:00 +28°C° 1.2 mm 2 mps 755 mmHg 91%
    19:00 +27°C° 1.2 mm 1 mps 755 mmHg 95%
    20:00 +27°C° 1.5 mm 1 mps 756 mmHg 96%
    21:00 +27°C° 1.5 mm 1 mps 757 mmHg 96%
    22:00 +27°C° 1.5 mm 1 mps 757 mmHg 96%
    23:00 +27°C° 1.3 mm 1 mps 757 mmHg 96%

    29 May, Wednesday

    Time Temperature Precipitation Wind Pressure Humidity
    00:00 +25°C° 1.3 mm 0 mps 756 mmHg 96%
    01:00 +24°C° 1.3 mm 0 mps 756 mmHg 96%
    02:00 +24°C° 0.4 mm 0 mps 756 mmHg 96%
    03:00 +24°C° 0.4 mm 0 mps 755 mmHg 96%
    04:00 +26°C° 0.4 mm 1 mps 755 mmHg 96%
    05:00 +26°C° 0.1 mm 1 mps 756 mmHg 95%
    06:00 +26°C° 0.1 mm 1 mps 756 mmHg 94%
    07:00 +26°C° 0.1 mm 1 mps 757 mmHg 94%
    08:00 +28°C° 0 mm 1 mps 757 mmHg 84%
    09:00 +30°C° 0 mm 1 mps 757 mmHg 75%
    10:00 +30°C° 0 mm 0 mps 757 mmHg 65%
    11:00 +33°C° 0.1 mm 1 mps 756 mmHg 64%
    12:00 +34°C° 0.1 mm 2 mps 755 mmHg 63%
    13:00 +35°C° 0.1 mm 3 mps 755 mmHg 62%
    14:00 +34°C° 0.1 mm 3 mps 754 mmHg 66%
    15:00 +33°C° 0.1 mm 3 mps 754 mmHg 70%
    16:00 +31°C° 0.1 mm 3 mps 753 mmHg 73%
    17:00 +30°C° 0.6 mm 3 mps 754 mmHg 80%
    18:00 +29°C° 0.6 mm 3 mps 755 mmHg 86%
    19:00 +28°C° 0.6 mm 3 mps 755 mmHg 92%
    20:00 +27°C° 1.2 mm 3 mps 756 mmHg 94%
    21:00 +27°C° 1.2 mm 3 mps 756 mmHg 95%
    22:00 +27°C° 1.2 mm 3 mps 757 mmHg 96%
    23:00 +27°C° 1.7 mm 2 mps 756 mmHg 96%

    30 May, Thursday

    Time Temperature Precipitation Wind Pressure Humidity
    00:00 +26°C° 1.7 mm 2 mps 756 mmHg 96%
    01:00 +26°C° 1.7 mm 2 mps 756 mmHg 95%
    02:00 +26°C° 0.5 mm 2 mps 755 mmHg 95%
    03:00 +26°C° 0.5 mm 1 mps 755 mmHg 94%
    04:00 +25°C° 0.5 mm 1 mps 755 mmHg 94%
    05:00 +25°C° 0.1 mm 1 mps 756 mmHg 93%
    06:00 +25°C° 0.1 mm 1 mps 756 mmHg 93%
    07:00 +25°C° 0.1 mm 1 mps 757 mmHg 92%
    08:00 +28°C° 0 mm 1 mps 757 mmHg 83%
    09:00 +30°C° 0 mm 1 mps 757 mmHg 73%
    10:00 +33°C° 0 mm 1 mps 757 mmHg 63%
    11:00 +34°C° 0 mm 2 mps 756 mmHg 63%
    12:00 +34°C° 0 mm 2 mps 755 mmHg 62%
    13:00 +35°C° 0 mm 3 mps 755 mmHg 62%
    14:00 +34°C° 0.2 mm 3 mps 754 mmHg 66%
    15:00 +33°C° 0.2 mm 3 mps 754 mmHg 70%
    16:00 +31°C° 0.2 mm 3 mps 754 mmHg 74%
    17:00 +30°C° 0.3 mm 3 mps 755 mmHg 80%
    18:00 +29°C° 0.3 mm 3 mps 755 mmHg 87%
    19:00 +27°C° 0.3 mm 3 mps 756 mmHg 94%
    20:00 +27°C° 1.5 mm 3 mps 756 mmHg 95%
    21:00 +27°C° 1.5 mm 3 mps 757 mmHg 96%
    22:00 +27°C° 1.5 mm 4 mps 757 mmHg 97%
    23:00 +27°C° 2.5 mm 3 mps 757 mmHg 97%
    Show more